Data supplied by UK-AIR on 30/3/2016
All Data GMT hour ending 
Status: R =Ratified P=Provisional,P*=As supplied
,,Barnsley Gawber,,,,,,,,,,,,,,,,,,,,,,,
Date,time,"Nitric oxide",status,unit,"Nitrogen dioxide",status,unit,"Nitrogen oxides as nitrogen dioxide",status,unit,"Ozone",status,unit,"Sulphur dioxide",status,unit
 
01-01-2014,01:00,1.80526,R,ugm-3,18.00810,R,ugm-3,20.77613,R,ugm-3,49.49336,R,ugm-3,,,
01-01-2014,02:00,2.06303,R,ugm-3,20.55619,R,ugm-3,23.71946,R,ugm-3,47.09852,R,ugm-3,,,
01-01-2014,03:00,1.40914,R,ugm-3,14.82235,R,ugm-3,16.98300,R,ugm-3,48.84476,R,ugm-3,,,
01-01-2014,04:00,1.38107,R,ugm-3,17.03081,R,ugm-3,19.14843,R,ugm-3,54.43272,R,ugm-3,,,
01-01-2014,05:00,1.16061,R,ugm-3,16.56225,R,ugm-3,18.34183,R,ugm-3,54.98154,R,ugm-3,,,
01-01-2014,06:00,1.54696,R,ugm-3,18.00762,R,ugm-3,20.37960,R,ugm-3,53.88390,R,ugm-3,,,
01-01-2014,07:00,1.49177,R,ugm-3,17.11544,R,ugm-3,19.40279,R,ugm-3,53.83401,R,ugm-3,,,
01-01-2014,08:00,1.27100,R,ugm-3,18.00571,R,ugm-3,19.95455,R,ugm-3,56.62799,R,ugm-3,,,
01-01-2014,09:00,1.57472,R,ugm-3,20.59763,R,ugm-3,23.01216,R,ugm-3,53.03573,R,ugm-3,,,
01-01-2014,10:00,1.57503,R,ugm-3,20.25768,R,ugm-3,22.67269,R,ugm-3,49.64304,R,ugm-3,,,
01-01-2014,11:00,2.54169,R,ugm-3,25.01598,R,ugm-3,28.91318,R,ugm-3,48.74497,R,ugm-3,,,
01-01-2014,12:00,2.45874,R,ugm-3,23.31816,R,ugm-3,27.08817,R,ugm-3,47.19831,R,ugm-3,,,
01-01-2014,13:00,1.68541,R,ugm-3,17.92252,R,ugm-3,20.50678,R,ugm-3,50.79057,R,ugm-3,,,
01-01-2014,14:00,1.57472,R,ugm-3,16.30932,R,ugm-3,18.72385,R,ugm-3,56.97724,R,ugm-3,,,
01-01-2014,15:00,1.71286,R,ugm-3,20.04587,R,ugm-3,22.67221,R,ugm-3,63.76262,R,ugm-3,,,
01-01-2014,16:00,1.90650,R,ugm-3,25.14077,R,ugm-3,28.06403,R,ugm-3,58.77337,R,ugm-3,,,
01-01-2014,17:00,2.37611,R,ugm-3,28.87923,R,ugm-3,32.52254,R,ugm-3,48.04648,R,ugm-3,,,
01-01-2014,18:00,2.43130,R,ugm-3,25.05805,R,ugm-3,28.78599,R,ugm-3,44.85336,R,ugm-3,,,
01-01-2014,19:00,2.15502,R,ugm-3,21.57539,R,ugm-3,24.87971,R,ugm-3,49.19401,R,ugm-3,,,
01-01-2014,20:00,1.90650,R,ugm-3,21.95693,R,ugm-3,24.88019,R,ugm-3,54.13336,R,ugm-3,,,
01-01-2014,21:00,1.96169,R,ugm-3,20.85342,R,ugm-3,23.86131,R,ugm-3,56.12906,R,ugm-3,,,
01-01-2014,22:00,1.90619,R,ugm-3,19.91964,R,ugm-3,22.84242,R,ugm-3,53.63444,R,ugm-3,,,
01-01-2014,23:00,2.01688,R,ugm-3,19.70688,R,ugm-3,22.79939,R,ugm-3,53.43487,R,ugm-3,,,
01-01-2014,24:00,1.68541,R,ugm-3,16.30932,R,ugm-3,18.89359,R,ugm-3,53.58455,R,ugm-3,,,
02-01-2014,01:00,2.09713,R,ugm-3,18.21529,R,ugm-3,21.43084,R,ugm-3,63.33021,R,ugm-3,,,
02-01-2014,02:00,2.64927,R,ugm-3,22.57133,R,ugm-3,26.63348,R,ugm-3,60.66928,R,ugm-3,,,
02-01-2014,03:00,2.42881,R,ugm-3,19.64377,R,ugm-3,23.36788,R,ugm-3,53.68433,R,ugm-3,,,
02-01-2014,04:00,2.12509,R,ugm-3,18.49770,R,ugm-3,21.75612,R,ugm-3,51.68863,R,ugm-3,,,
02-01-2014,05:00,2.26291,R,ugm-3,19.09201,R,ugm-3,22.56176,R,ugm-3,49.49336,R,ugm-3,,,
02-01-2014,06:00,2.15253,R,ugm-3,17.98945,R,ugm-3,21.28995,R,ugm-3,48.94454,R,ugm-3,,,
02-01-2014,07:00,2.64958,R,ugm-3,20.61962,R,ugm-3,24.68225,R,ugm-3,51.63874,R,ugm-3,,,
02-01-2014,08:00,3.31158,R,ugm-3,24.35425,R,ugm-3,29.43194,R,ugm-3,51.48906,R,ugm-3,,,
02-01-2014,09:00,3.89095,R,ugm-3,27.11351,R,ugm-3,33.07956,R,ugm-3,49.24390,R,ugm-3,,,
02-01-2014,10:00,4.82923,R,ugm-3,30.80655,R,ugm-3,38.21127,R,ugm-3,50.74067,R,ugm-3,,,
02-01-2014,11:00,6.92688,R,ugm-3,34.62964,R,ugm-3,45.25071,R,ugm-3,49.19401,R,ugm-3,,,
02-01-2014,12:00,3.91839,R,ugm-3,23.76329,R,ugm-3,29.77141,R,ugm-3,48.84476,R,ugm-3,,,
02-01-2014,13:00,3.44941,R,ugm-3,20.49578,R,ugm-3,25.78480,R,ugm-3,56.82756,R,ugm-3,,,
02-01-2014,14:00,3.14600,R,ugm-3,19.81589,R,ugm-3,24.63969,R,ugm-3,55.92949,R,ugm-3,,,
02-01-2014,15:00,2.89717,R,ugm-3,19.68919,R,ugm-3,24.13145,R,ugm-3,54.83186,R,ugm-3,,,
02-01-2014,16:00,3.94646,R,ugm-3,24.95000,R,ugm-3,31.00115,R,ugm-3,54.43272,R,ugm-3,,,
02-01-2014,17:00,5.85046,R,ugm-3,38.65545,R,ugm-3,47.62603,R,ugm-3,47.69723,R,ugm-3,,,
02-01-2014,18:00,6.81650,R,ugm-3,49.09148,R,ugm-3,59.54330,R,ugm-3,36.97034,R,ugm-3,,,
02-01-2014,19:00,5.13295,R,ugm-3,39.41663,R,ugm-3,47.28704,R,ugm-3,27.14152,R,ugm-3,,,
02-01-2014,20:00,3.94615,R,ugm-3,39.41232,R,ugm-3,45.46299,R,ugm-3,28.73808,R,ugm-3,,,
02-01-2014,21:00,2.81516,R,ugm-3,36.14243,R,ugm-3,40.45894,R,ugm-3,28.43873,R,ugm-3,,,
02-01-2014,22:00,2.23547,R,ugm-3,31.22061,R,ugm-3,34.64828,R,ugm-3,31.53206,R,ugm-3,,,
02-01-2014,23:00,1.79362,R,ugm-3,23.45873,R,ugm-3,26.20890,R,ugm-3,35.52346,R,ugm-3,,,
02-01-2014,24:00,1.15937,R,ugm-3,18.28207,R,ugm-3,20.05973,R,ugm-3,43.70583,R,ugm-3,,,
03-01-2014,01:00,1.10261,R,ugm-3,15.98850,R,ugm-3,17.67915,R,ugm-3,48.29594,R,ugm-3,,,
03-01-2014,02:00,1.21279,R,ugm-3,15.14126,R,ugm-3,17.00085,R,ugm-3,51.15644,R,ugm-3,,,
03-01-2014,03:00,0.96510,R,ugm-3,11.27132,R,ugm-3,12.75112,R,ugm-3,59.17251,R,ugm-3,,,
03-01-2014,04:00,0.90959,R,ugm-3,10.84770,R,ugm-3,12.24239,R,ugm-3,64.81036,R,ugm-3,,,
03-01-2014,05:00,1.10293,R,ugm-3,12.41499,R,ugm-3,14.10612,R,ugm-3,67.55445,R,ugm-3,,,
03-01-2014,06:00,1.40571,R,ugm-3,14.57708,R,ugm-3,16.73246,R,ugm-3,64.51100,R,ugm-3,,,
03-01-2014,07:00,1.40602,R,ugm-3,13.22159,R,ugm-3,15.37746,R,ugm-3,61.66713,R,ugm-3,,,
03-01-2014,08:00,1.92957,R,ugm-3,16.44320,R,ugm-3,19.40183,R,ugm-3,63.61294,R,ugm-3,,,
03-01-2014,09:00,2.48088,R,ugm-3,19.02890,R,ugm-3,22.83286,R,ugm-3,64.36133,R,ugm-3,,,
03-01-2014,10:00,2.56320,R,ugm-3,18.81804,R,ugm-3,22.74823,R,ugm-3,62.46541,R,ugm-3,,,
03-01-2014,11:00,2.31530,R,ugm-3,16.74059,R,ugm-3,20.29067,R,ugm-3,61.56735,R,ugm-3,,,
03-01-2014,12:00,2.26042,R,ugm-3,16.14724,R,ugm-3,19.61317,R,ugm-3,66.70627,R,ugm-3,,,
03-01-2014,13:00,2.03996,R,ugm-3,15.21489,R,ugm-3,18.34279,R,ugm-3,67.85380,R,ugm-3,,,
03-01-2014,14:00,2.09484,R,ugm-3,16.14724,R,ugm-3,19.35928,R,ugm-3,69.84950,R,ugm-3,,,
03-01-2014,15:00,1.95733,R,ugm-3,15.85032,R,ugm-3,18.85151,R,ugm-3,70.34843,R,ugm-3,,,
03-01-2014,16:00,1.84694,R,ugm-3,16.99352,R,ugm-3,19.82545,R,ugm-3,67.20520,R,ugm-3,,,
03-01-2014,17:00,1.92926,R,ugm-3,17.54528,R,ugm-3,20.50343,R,ugm-3,68.75187,R,ugm-3,,,
03-01-2014,18:00,1.57129,R,ugm-3,14.83192,R,ugm-3,17.24119,R,ugm-3,65.60864,R,ugm-3,,,
03-01-2014,19:00,1.35083,R,ugm-3,13.05186,R,ugm-3,15.12309,R,ugm-3,65.30928,R,ugm-3,,,
03-01-2014,20:00,1.40602,R,ugm-3,12.96723,R,ugm-3,15.12309,R,ugm-3,61.21810,R,ugm-3,,,
03-01-2014,21:00,1.32307,R,ugm-3,13.09441,R,ugm-3,15.12309,R,ugm-3,58.47401,R,ugm-3,,,
03-01-2014,22:00,0.93735,R,ugm-3,9.87328,R,ugm-3,11.31053,R,ugm-3,58.72347,R,ugm-3,,,
03-01-2014,23:00,0.77177,R,ugm-3,9.06812,R,ugm-3,10.25148,R,ugm-3,65.80821,R,ugm-3,,,
03-01-2014,24:00,0.66138,R,ugm-3,8.26248,R,ugm-3,9.27658,R,ugm-3,64.56090,R,ugm-3,,,
04-01-2014,01:00,0.58789,R,ugm-3,7.61813,R,ugm-3,8.51955,R,ugm-3,67.72075,R,ugm-3,,,
04-01-2014,02:00,0.69807,R,ugm-3,11.68028,R,ugm-3,12.75064,R,ugm-3,76.56836,R,ugm-3,,,
04-01-2014,03:00,0.71657,R,ugm-3,11.00309,R,ugm-3,12.10182,R,ugm-3,73.24219,R,ugm-3,,,
04-01-2014,04:00,0.77208,R,ugm-3,10.87591,R,ugm-3,12.05975,R,ugm-3,67.55445,R,ugm-3,,,
04-01-2014,05:00,1.01998,R,ugm-3,14.09178,R,ugm-3,15.65573,R,ugm-3,63.01423,R,ugm-3,,,
04-01-2014,06:00,1.24044,R,ugm-3,17.47834,R,ugm-3,19.38032,R,ugm-3,55.82971,R,ugm-3,,,
04-01-2014,07:00,2.23267,R,ugm-3,31.99373,R,ugm-3,35.41711,R,ugm-3,55.13121,R,ugm-3,,,
04-01-2014,08:00,2.64615,R,ugm-3,30.85197,R,ugm-3,34.90934,R,ugm-3,43.70583,R,ugm-3,,,
04-01-2014,09:00,2.67421,R,ugm-3,28.98920,R,ugm-3,33.08960,R,ugm-3,42.25895,R,ugm-3,,,
04-01-2014,10:00,3.44567,R,ugm-3,41.17804,R,ugm-3,46.46132,R,ugm-3,51.48906,R,ugm-3,,,
04-01-2014,11:00,4.41077,R,ugm-3,42.95618,R,ugm-3,49.71926,R,ugm-3,38.26755,R,ugm-3,,,
04-01-2014,12:00,8.18665,R,ugm-3,50.83377,R,ugm-3,63.38647,R,ugm-3,30.48432,R,ugm-3,,,
04-01-2014,13:00,8.49006,R,ugm-3,51.59495,R,ugm-3,64.61286,R,ugm-3,23.10023,R,ugm-3,,,
04-01-2014,14:00,16.34618,R,ugm-3,59.73407,R,ugm-3,84.79786,R,ugm-3,22.30195,R,ugm-3,,,
04-01-2014,15:00,9.75825,R,ugm-3,50.28632,R,ugm-3,65.24876,R,ugm-3,11.97420,R,ugm-3,,,
04-01-2014,16:00,6.31259,R,ugm-3,40.63250,R,ugm-3,50.31166,R,ugm-3,28.18926,R,ugm-3,,,
04-01-2014,17:00,8.40743,R,ugm-3,46.94040,R,ugm-3,59.83161,R,ugm-3,36.72088,R,ugm-3,,,
04-01-2014,18:00,6.31259,R,ugm-3,38.89738,R,ugm-3,48.57654,R,ugm-3,31.23271,R,ugm-3,,,
04-01-2014,19:00,4.52053,R,ugm-3,33.22491,R,ugm-3,40.15628,R,ugm-3,37.91830,R,ugm-3,,,
04-01-2014,20:00,3.28040,R,ugm-3,28.86393,R,ugm-3,33.89380,R,ugm-3,39.81422,R,ugm-3,,,
04-01-2014,21:00,2.17747,R,ugm-3,24.63061,R,ugm-3,27.96936,R,ugm-3,44.10497,R,ugm-3,,,
04-01-2014,22:00,2.37081,R,ugm-3,24.96912,R,ugm-3,28.60431,R,ugm-3,50.64089,R,ugm-3,,,
04-01-2014,23:00,2.26042,R,ugm-3,25.13838,R,ugm-3,28.60431,R,ugm-3,53.93379,R,ugm-3,,,
04-01-2014,24:00,1.92957,R,ugm-3,23.40278,R,ugm-3,26.36142,R,ugm-3,53.23530,R,ugm-3,,,
05-01-2014,01:00,2.82680,R,ugm-3,27.95693,R,ugm-3,32.29129,R,ugm-3,58.80663,R,ugm-3,,,
05-01-2014,02:00,1.83561,R,ugm-3,21.02348,R,ugm-3,23.83804,R,ugm-3,54.08347,R,ugm-3,,,
05-01-2014,03:00,1.62430,R,ugm-3,17.79725,R,ugm-3,20.28780,R,ugm-3,59.87100,R,ugm-3,,,
05-01-2014,04:00,1.45934,R,ugm-3,18.09225,R,ugm-3,20.32988,R,ugm-3,60.71917,R,ugm-3,,,
05-01-2014,05:00,1.62430,R,ugm-3,19.23449,R,ugm-3,21.72504,R,ugm-3,59.02283,R,ugm-3,,,
05-01-2014,06:00,1.54166,R,ugm-3,20.24859,R,ugm-3,22.61244,R,ugm-3,57.27659,R,ugm-3,,,
05-01-2014,07:00,1.76212,R,ugm-3,20.45993,R,ugm-3,23.16181,R,ugm-3,57.57595,R,ugm-3,,,
05-01-2014,08:00,1.95452,R,ugm-3,25.87039,R,ugm-3,28.86728,R,ugm-3,58.22455,R,ugm-3,,,
05-01-2014,09:00,1.81732,R,ugm-3,23.37601,R,ugm-3,26.16252,R,ugm-3,51.88820,R,ugm-3,,,
05-01-2014,10:00,3.33154,R,ugm-3,30.64877,R,ugm-3,35.75706,R,ugm-3,50.84046,R,ugm-3,,,
05-01-2014,11:00,5.45164,R,ugm-3,36.14721,R,ugm-3,44.50627,R,ugm-3,39.96389,R,ugm-3,,,
05-01-2014,12:00,4.13012,R,ugm-3,31.91819,R,ugm-3,38.25096,R,ugm-3,32.87916,R,ugm-3,,,
05-01-2014,13:00,5.01134,R,ugm-3,38.42882,R,ugm-3,46.11277,R,ugm-3,39.41508,R,ugm-3,,,
05-01-2014,14:00,3.08364,R,ugm-3,27.01358,R,ugm-3,31.74176,R,ugm-3,32.62970,R,ugm-3,,,
05-01-2014,15:00,2.91868,R,ugm-3,26.16778,R,ugm-3,30.64303,R,ugm-3,45.15271,R,ugm-3,,,
05-01-2014,16:00,2.31281,R,ugm-3,25.61794,R,ugm-3,29.16419,R,ugm-3,48.09637,R,ugm-3,,,
05-01-2014,17:00,2.09266,R,ugm-3,26.12379,R,ugm-3,29.33249,R,ugm-3,48.09637,R,ugm-3,,,
05-01-2014,18:00,2.09266,R,ugm-3,30.94234,R,ugm-3,34.15103,R,ugm-3,44.70368,R,ugm-3,,,
05-01-2014,19:00,1.59717,R,ugm-3,21.68440,R,ugm-3,24.13336,R,ugm-3,41.80992,R,ugm-3,,,
05-01-2014,20:00,1.51453,R,ugm-3,17.50081,R,ugm-3,19.82306,R,ugm-3,47.54755,R,ugm-3,,,
05-01-2014,21:00,1.45934,R,ugm-3,16.74011,R,ugm-3,18.97774,R,ugm-3,51.43917,R,ugm-3,,,
05-01-2014,22:00,1.37671,R,ugm-3,15.55628,R,ugm-3,17.66720,R,ugm-3,46.94884,R,ugm-3,,,
05-01-2014,23:00,1.34958,R,ugm-3,13.61174,R,ugm-3,15.68107,R,ugm-3,49.29379,R,ugm-3,,,
05-01-2014,24:00,1.07393,R,ugm-3,11.62513,R,ugm-3,13.27179,R,ugm-3,51.23960,R,ugm-3,,,
06-01-2014,01:00,1.24647,R,ugm-3,13.98101,R,ugm-3,15.89224,R,ugm-3,63.79588,R,ugm-3,,,
06-01-2014,02:00,0.91718,R,ugm-3,13.35881,R,ugm-3,14.76514,R,ugm-3,62.59846,R,ugm-3,,,
06-01-2014,03:00,0.90803,R,ugm-3,11.28758,R,ugm-3,12.67988,R,ugm-3,68.30283,R,ugm-3,,,
06-01-2014,04:00,0.99036,R,ugm-3,11.88045,R,ugm-3,13.39898,R,ugm-3,74.48950,R,ugm-3,,,
06-01-2014,05:00,2.80549,R,ugm-3,17.76091,R,ugm-3,22.06260,R,ugm-3,72.19445,R,ugm-3,,,
06-01-2014,06:00,1.81545,R,ugm-3,18.51826,R,ugm-3,21.30190,R,ugm-3,67.20520,R,ugm-3,,,
06-01-2014,07:00,2.47527,R,ugm-3,21.81828,R,ugm-3,25.61363,R,ugm-3,63.31358,R,ugm-3,,,
06-01-2014,08:00,2.91525,R,ugm-3,21.39753,R,ugm-3,25.86752,R,ugm-3,59.87100,R,ugm-3,,,
06-01-2014,09:00,3.54763,R,ugm-3,25.66862,R,ugm-3,31.10825,R,ugm-3,59.87100,R,ugm-3,,,
06-01-2014,10:00,3.65771,R,ugm-3,26.04921,R,ugm-3,31.65761,R,ugm-3,56.07917,R,ugm-3,,,
06-01-2014,11:00,2.66829,R,ugm-3,21.60647,R,ugm-3,25.69778,R,ugm-3,53.68433,R,ugm-3,,,
06-01-2014,12:00,3.43787,R,ugm-3,22.79365,R,ugm-3,28.06498,R,ugm-3,57.52605,R,ugm-3,,,
06-01-2014,13:00,2.42039,R,ugm-3,16.74585,R,ugm-3,20.45706,R,ugm-3,56.37853,R,ugm-3,,,
06-01-2014,14:00,2.33806,R,ugm-3,15.09680,R,ugm-3,18.68178,R,ugm-3,60.02068,R,ugm-3,,,
06-01-2014,15:00,2.31031,R,ugm-3,15.68919,R,ugm-3,19.23162,R,ugm-3,60.36993,R,ugm-3,,,
06-01-2014,16:00,2.31000,R,ugm-3,17.37984,R,ugm-3,20.92179,R,ugm-3,58.02498,R,ugm-3,,,
06-01-2014,17:00,3.35555,R,ugm-3,26.38533,R,ugm-3,31.53043,R,ugm-3,58.87315,R,ugm-3,,,
06-01-2014,18:00,2.91525,R,ugm-3,24.18643,R,ugm-3,28.65642,R,ugm-3,50.14196,R,ugm-3,,,
06-01-2014,19:00,2.88781,R,ugm-3,26.08841,R,ugm-3,30.51633,R,ugm-3,53.58455,R,ugm-3,,,
06-01-2014,20:00,1.95265,R,ugm-3,17.96985,R,ugm-3,20.96387,R,ugm-3,50.64089,R,ugm-3,,,
06-01-2014,21:00,1.62274,R,ugm-3,16.82761,R,ugm-3,19.31577,R,ugm-3,55.72992,R,ugm-3,,,
06-01-2014,22:00,1.37484,R,ugm-3,14.62967,R,ugm-3,16.73772,R,ugm-3,59.32218,R,ugm-3,,,
06-01-2014,23:00,1.40290,R,ugm-3,15.05090,R,ugm-3,17.20198,R,ugm-3,59.37208,R,ugm-3,,,
06-01-2014,24:00,0.99036,R,ugm-3,12.64115,R,ugm-3,14.15967,R,ugm-3,58.22455,R,ugm-3,,,
07-01-2014,01:00,0.95252,R,ugm-3,11.59931,R,ugm-3,13.05983,R,ugm-3,58.93967,R,ugm-3,,,
07-01-2014,02:00,0.80617,R,ugm-3,11.71088,R,ugm-3,12.94699,R,ugm-3,60.66928,R,ugm-3,,,
07-01-2014,03:00,0.90679,R,ugm-3,12.33084,R,ugm-3,13.72123,R,ugm-3,64.06197,R,ugm-3,,,
07-01-2014,04:00,0.85191,R,ugm-3,10.64115,R,ugm-3,11.94739,R,ugm-3,59.97079,R,ugm-3,,,
07-01-2014,05:00,1.04399,R,ugm-3,11.27610,R,ugm-3,12.87686,R,ugm-3,65.60864,R,ugm-3,,,
07-01-2014,06:00,1.26352,R,ugm-3,12.96579,R,ugm-3,14.90316,R,ugm-3,59.87100,R,ugm-3,,,
07-01-2014,07:00,2.03279,R,ugm-3,16.13481,R,ugm-3,19.25170,R,ugm-3,61.46756,R,ugm-3,,,
07-01-2014,08:00,2.22518,R,ugm-3,20.06213,R,ugm-3,23.47403,R,ugm-3,58.17466,R,ugm-3,,,
07-01-2014,09:00,3.21429,R,ugm-3,21.37362,R,ugm-3,26.30213,R,ugm-3,55.08132,R,ugm-3,,,
07-01-2014,10:00,2.96670,R,ugm-3,20.31744,R,ugm-3,24.86633,R,ugm-3,54.18326,R,ugm-3,,,
07-01-2014,11:00,2.88438,R,ugm-3,19.38845,R,ugm-3,23.81110,R,ugm-3,52.73637,R,ugm-3,,,
07-01-2014,12:00,2.55478,R,ugm-3,16.60050,R,ugm-3,20.51778,R,ugm-3,54.33293,R,ugm-3,,,
07-01-2014,13:00,2.63742,R,ugm-3,17.65668,R,ugm-3,21.70066,R,ugm-3,61.36778,R,ugm-3,,,
07-01-2014,14:00,2.74718,R,ugm-3,21.03463,R,ugm-3,25.24691,R,ugm-3,57.72562,R,ugm-3,,,
07-01-2014,15:00,2.55478,R,ugm-3,19.34494,R,ugm-3,23.26222,R,ugm-3,54.08347,R,ugm-3,,,
07-01-2014,16:00,2.60966,R,ugm-3,19.80968,R,ugm-3,23.81110,R,ugm-3,56.57810,R,ugm-3,,,
07-01-2014,17:00,2.30751,R,ugm-3,18.37291,R,ugm-3,21.91103,R,ugm-3,55.38068,R,ugm-3,,,
07-01-2014,18:00,2.41758,R,ugm-3,18.75302,R,ugm-3,22.45992,R,ugm-3,54.98154,R,ugm-3,,,
07-01-2014,19:00,1.92334,R,ugm-3,16.25960,R,ugm-3,19.20867,R,ugm-3,54.83186,R,ugm-3,,,
07-01-2014,20:00,2.06023,R,ugm-3,16.55747,R,ugm-3,19.71644,R,ugm-3,55.48046,R,ugm-3,,,
07-01-2014,21:00,1.29096,R,ugm-3,13.09250,R,ugm-3,15.07193,R,ugm-3,53.43487,R,ugm-3,,,
07-01-2014,22:00,1.20863,R,ugm-3,13.09202,R,ugm-3,14.94523,R,ugm-3,58.52390,R,ugm-3,,,
07-01-2014,23:00,1.53823,R,ugm-3,16.59715,R,ugm-3,18.95574,R,ugm-3,61.06842,R,ugm-3,,,
07-01-2014,24:00,1.40072,R,ugm-3,15.83789,R,ugm-3,17.98563,R,ugm-3,62.31573,R,ugm-3,,,
08-01-2014,01:00,0.98911,R,ugm-3,11.80905,R,ugm-3,13.32566,R,ugm-3,63.46326,R,ugm-3,,,
08-01-2014,02:00,0.98911,R,ugm-3,14.00205,R,ugm-3,15.51866,R,ugm-3,61.93322,R,ugm-3,,,
08-01-2014,03:00,0.93423,R,ugm-3,11.51373,R,ugm-3,12.94619,R,ugm-3,60.51960,R,ugm-3,,,
08-01-2014,04:00,0.90679,R,ugm-3,10.92277,R,ugm-3,12.31315,R,ugm-3,59.27229,R,ugm-3,,,
08-01-2014,05:00,0.98911,R,ugm-3,11.17665,R,ugm-3,12.69326,R,ugm-3,56.47831,R,ugm-3,,,
08-01-2014,06:00,1.34615,R,ugm-3,12.82188,R,ugm-3,14.88594,R,ugm-3,58.27444,R,ugm-3,,,
08-01-2014,07:00,1.86846,R,ugm-3,16.44893,R,ugm-3,19.31386,R,ugm-3,60.41982,R,ugm-3,,,
08-01-2014,08:00,2.11542,R,ugm-3,20.37195,R,ugm-3,23.61555,R,ugm-3,58.92304,R,ugm-3,,,
08-01-2014,09:00,3.21398,R,ugm-3,24.04299,R,ugm-3,28.97103,R,ugm-3,53.98369,R,ugm-3,,,
08-01-2014,10:00,3.32437,R,ugm-3,24.46470,R,ugm-3,29.56199,R,ugm-3,51.08992,R,ugm-3,,,
08-01-2014,11:00,3.73598,R,ugm-3,25.73125,R,ugm-3,31.45967,R,ugm-3,51.38928,R,ugm-3,,,
08-01-2014,12:00,4.17565,R,ugm-3,27.12355,R,ugm-3,33.52613,R,ugm-3,51.18971,R,ugm-3,,,
08-01-2014,13:00,4.72508,R,ugm-3,30.49768,R,ugm-3,37.74271,R,ugm-3,49.44347,R,ugm-3,,,
08-01-2014,14:00,5.30227,R,ugm-3,29.65523,R,ugm-3,37.78526,R,ugm-3,46.54970,R,ugm-3,,,
08-01-2014,15:00,6.12611,R,ugm-3,36.86822,R,ugm-3,46.26146,R,ugm-3,47.79702,R,ugm-3,,,
08-01-2014,16:00,7.52714,R,ugm-3,46.10559,R,ugm-3,57.64705,R,ugm-3,42.05938,R,ugm-3,,,
08-01-2014,17:00,13.84597,R,ugm-3,62.09935,R,ugm-3,83.32954,R,ugm-3,34.42583,R,ugm-3,,,
08-01-2014,18:00,12.58183,R,ugm-3,61.50696,R,ugm-3,80.79882,R,ugm-3,20.00689,R,ugm-3,,,
08-01-2014,19:00,16.81236,R,ugm-3,67.29227,R,ugm-3,93.07086,R,ugm-3,17.56216,R,ugm-3,,,
08-01-2014,20:00,11.37319,R,ugm-3,64.96237,R,ugm-3,82.40102,R,ugm-3,13.82022,R,ugm-3,,,
08-01-2014,21:00,11.86806,R,ugm-3,60.11322,R,ugm-3,78.31066,R,ugm-3,15.81592,R,ugm-3,,,
08-01-2014,22:00,5.71419,R,ugm-3,52.80747,R,ugm-3,61.56911,R,ugm-3,14.26926,R,ugm-3,,,
08-01-2014,23:00,3.13197,R,ugm-3,36.56748,R,ugm-3,41.36977,R,ugm-3,18.56001,R,ugm-3,,,
08-01-2014,24:00,2.19774,R,ugm-3,24.88449,R,ugm-3,28.25432,R,ugm-3,33.67744,R,ugm-3,,,
09-01-2014,01:00,2.23184,R,ugm-3,26.85023,R,ugm-3,30.27233,R,ugm-3,50.55773,R,ugm-3,,,
09-01-2014,02:00,2.81724,R,ugm-3,29.21025,R,ugm-3,33.52995,R,ugm-3,39.64791,R,ugm-3,,,
09-01-2014,03:00,2.68918,R,ugm-3,28.26962,R,ugm-3,32.39297,R,ugm-3,42.20906,R,ugm-3,,,
09-01-2014,04:00,2.77150,R,ugm-3,27.51083,R,ugm-3,31.76041,R,ugm-3,39.76432,R,ugm-3,,,
09-01-2014,05:00,2.79894,R,ugm-3,29.28038,R,ugm-3,33.57203,R,ugm-3,38.41723,R,ugm-3,,,
09-01-2014,06:00,2.90870,R,ugm-3,29.53330,R,ugm-3,33.99325,R,ugm-3,41.26110,R,ugm-3,,,
09-01-2014,07:00,3.53984,R,ugm-3,38.50580,R,ugm-3,43.93347,R,ugm-3,39.91400,R,ugm-3,,,
09-01-2014,08:00,3.92401,R,ugm-3,40.48667,R,ugm-3,46.50339,R,ugm-3,37.26970,R,ugm-3,,,
09-01-2014,09:00,2.52454,R,ugm-3,32.69132,R,ugm-3,36.56222,R,ugm-3,47.64734,R,ugm-3,,,
09-01-2014,10:00,2.96359,R,ugm-3,33.99803,R,ugm-3,38.54213,R,ugm-3,54.43272,R,ugm-3,,,
09-01-2014,11:00,3.48496,R,ugm-3,28.73388,R,ugm-3,34.07740,R,ugm-3,47.59745,R,ugm-3,,,
09-01-2014,12:00,4.14353,R,ugm-3,29.15606,R,ugm-3,35.50939,R,ugm-3,46.94884,R,ugm-3,,,
09-01-2014,13:00,3.10079,R,ugm-3,23.80489,R,ugm-3,28.55936,R,ugm-3,44.50411,R,ugm-3,,,
09-01-2014,14:00,2.44221,R,ugm-3,20.43363,R,ugm-3,24.17830,R,ugm-3,53.28519,R,ugm-3,,,
09-01-2014,15:00,2.46965,R,ugm-3,23.55053,R,ugm-3,27.33728,R,ugm-3,58.97294,R,ugm-3,,,
09-01-2014,16:00,3.01847,R,ugm-3,27.76472,R,ugm-3,32.39297,R,ugm-3,56.27874,R,ugm-3,,,
09-01-2014,17:00,2.82638,R,ugm-3,28.31169,R,ugm-3,32.64542,R,ugm-3,49.54325,R,ugm-3,,,
09-01-2014,18:00,2.30501,R,ugm-3,26.66742,R,ugm-3,30.20172,R,ugm-3,47.59745,R,ugm-3,,,
09-01-2014,19:00,2.16781,R,ugm-3,24.18261,R,ugm-3,27.50653,R,ugm-3,48.54540,R,ugm-3,,,
09-01-2014,20:00,1.75620,R,ugm-3,24.68655,R,ugm-3,27.37935,R,ugm-3,49.44347,R,ugm-3,,,
09-01-2014,21:00,2.05805,R,ugm-3,27.55195,R,ugm-3,30.70758,R,ugm-3,48.24605,R,ugm-3,,,
09-01-2014,22:00,2.03060,R,ugm-3,25.06714,R,ugm-3,28.18069,R,ugm-3,42.80777,R,ugm-3,,,
09-01-2014,23:00,1.75620,R,ugm-3,22.58089,R,ugm-3,25.27369,R,ugm-3,43.95529,R,ugm-3,,,
09-01-2014,24:00,1.94828,R,ugm-3,23.29760,R,ugm-3,26.28492,R,ugm-3,49.89250,R,ugm-3,,,
10-01-2014,01:00,1.64436,R,ugm-3,21.82609,R,ugm-3,24.34740,R,ugm-3,46.83243,R,ugm-3,,,
10-01-2014,02:00,1.79029,R,ugm-3,22.66823,R,ugm-3,25.41330,R,ugm-3,44.70368,R,ugm-3,,,
10-01-2014,03:00,1.97323,R,ugm-3,22.09320,R,ugm-3,25.11878,R,ugm-3,45.25250,R,ugm-3,,,
10-01-2014,04:00,1.86347,R,ugm-3,20.41020,R,ugm-3,23.26748,R,ugm-3,45.70153,R,ugm-3,,,
10-01-2014,05:00,2.08299,R,ugm-3,21.33585,R,ugm-3,24.52973,R,ugm-3,46.49981,R,ugm-3,,,
10-01-2014,06:00,3.31688,R,ugm-3,27.48023,R,ugm-3,32.56605,R,ugm-3,47.04863,R,ugm-3,,,
10-01-2014,07:00,3.94646,R,ugm-3,29.83883,R,ugm-3,35.88998,R,ugm-3,44.60390,R,ugm-3,,,
10-01-2014,08:00,10.25125,R,ugm-3,49.16129,R,ugm-3,64.87965,R,ugm-3,42.05938,R,ugm-3,,,
10-01-2014,09:00,16.55479,R,ugm-3,54.68507,R,ugm-3,80.06873,R,ugm-3,26.44303,R,ugm-3,,,
10-01-2014,10:00,14.25290,R,ugm-3,47.52754,R,ugm-3,69.38168,R,ugm-3,19.65765,R,ugm-3,,,
10-01-2014,11:00,12.38881,R,ugm-3,42.05492,R,ugm-3,61.05083,R,ugm-3,24.94625,R,ugm-3,,,
10-01-2014,12:00,8.85302,R,ugm-3,38.59855,R,ugm-3,52.17300,R,ugm-3,27.74023,R,ugm-3,,,
10-01-2014,13:00,7.29078,R,ugm-3,36.40778,R,ugm-3,47.58683,R,ugm-3,33.87701,R,ugm-3,,,
10-01-2014,14:00,4.93338,R,ugm-3,30.93421,R,ugm-3,38.49863,R,ugm-3,40.11357,R,ugm-3,,,
10-01-2014,15:00,4.13854,R,ugm-3,28.49243,R,ugm-3,34.83810,R,ugm-3,47.04863,R,ugm-3,,,
10-01-2014,16:00,6.03007,R,ugm-3,36.78407,R,ugm-3,46.03005,R,ugm-3,47.69723,R,ugm-3,,,
10-01-2014,17:00,7.20846,R,ugm-3,47.55766,R,ugm-3,58.61048,R,ugm-3,38.86626,R,ugm-3,,,
10-01-2014,18:00,5.83799,R,ugm-3,41.91722,R,ugm-3,50.86868,R,ugm-3,32.48002,R,ugm-3,,,
10-01-2014,19:00,2.63149,R,ugm-3,24.53403,R,ugm-3,28.56893,R,ugm-3,36.97034,R,ugm-3,,,
10-01-2014,20:00,2.96016,R,ugm-3,26.93326,R,ugm-3,31.47210,R,ugm-3,51.48906,R,ugm-3,,,
10-01-2014,21:00,2.60405,R,ugm-3,25.62798,R,ugm-3,29.62080,R,ugm-3,46.25035,R,ugm-3,,,
10-01-2014,22:00,1.86409,R,ugm-3,20.99829,R,ugm-3,23.85653,R,ugm-3,42.90755,R,ugm-3,,,
10-01-2014,23:00,1.48055,R,ugm-3,17.33681,R,ugm-3,19.60695,R,ugm-3,47.79702,R,ugm-3,,,
10-01-2014,24:00,1.64457,R,ugm-3,17.54814,R,ugm-3,20.06978,R,ugm-3,53.38498,R,ugm-3,,,
11-01-2014,01:00,2.30002,R,ugm-3,21.32565,R,ugm-3,24.85230,R,ugm-3,53.35171,R,ugm-3,,,
11-01-2014,02:00,2.59147,R,ugm-3,24.86186,R,ugm-3,28.83540,R,ugm-3,45.76805,R,ugm-3,,,
11-01-2014,03:00,2.10794,R,ugm-3,20.91893,R,ugm-3,24.15105,R,ugm-3,49.24390,R,ugm-3,,,
11-01-2014,04:00,2.13538,R,ugm-3,20.28780,R,ugm-3,23.56200,R,ugm-3,52.43702,R,ugm-3,,,
11-01-2014,05:00,2.27258,R,ugm-3,21.80250,R,ugm-3,25.28708,R,ugm-3,52.53680,R,ugm-3,,,
11-01-2014,06:00,2.21770,R,ugm-3,22.13910,R,ugm-3,25.53953,R,ugm-3,51.58885,R,ugm-3,,,
11-01-2014,07:00,2.35428,R,ugm-3,24.20173,R,ugm-3,27.81158,R,ugm-3,53.58455,R,ugm-3,,,
11-01-2014,08:00,3.06618,R,ugm-3,33.58685,R,ugm-3,38.28825,R,ugm-3,50.69078,R,ugm-3,,,
11-01-2014,09:00,4.81832,R,ugm-3,37.16944,R,ugm-3,44.55743,R,ugm-3,38.81637,R,ugm-3,,,
11-01-2014,10:00,4.84607,R,ugm-3,33.92918,R,ugm-3,41.35973,R,ugm-3,36.97034,R,ugm-3,,,
11-01-2014,11:00,4.10674,R,ugm-3,30.72909,R,ugm-3,37.02600,R,ugm-3,42.50841,R,ugm-3,,,
11-01-2014,12:00,2.76526,R,ugm-3,23.73986,R,ugm-3,27.97988,R,ugm-3,50.44132,R,ugm-3,,,
11-01-2014,13:00,2.71038,R,ugm-3,25.42286,R,ugm-3,29.57873,R,ugm-3,57.87530,R,ugm-3,,,
11-01-2014,14:00,3.01129,R,ugm-3,25.50845,R,ugm-3,30.12570,R,ugm-3,56.07917,R,ugm-3,,,
11-01-2014,15:00,2.35490,R,ugm-3,22.18118,R,ugm-3,25.79198,R,ugm-3,58.77337,R,ugm-3,,,
11-01-2014,16:00,2.57349,R,ugm-3,26.34803,R,ugm-3,30.29400,R,ugm-3,57.12691,R,ugm-3,,,
11-01-2014,17:00,5.77687,R,ugm-3,37.46683,R,ugm-3,46.32458,R,ugm-3,49.79272,R,ugm-3,,,
11-01-2014,18:00,7.61103,R,ugm-3,40.29255,R,ugm-3,51.96263,R,ugm-3,37.02024,R,ugm-3,,,
11-01-2014,19:00,9.96562,R,ugm-3,46.48570,R,ugm-3,61.76610,R,ugm-3,34.17636,R,ugm-3,,,
11-01-2014,20:00,4.07930,R,ugm-3,39.56484,R,ugm-3,45.81968,R,ugm-3,29.53636,R,ugm-3,,,
11-01-2014,21:00,4.13418,R,ugm-3,34.72622,R,ugm-3,41.06520,R,ugm-3,29.98539,R,ugm-3,,,
11-01-2014,22:00,6.54302,R,ugm-3,40.96240,R,ugm-3,50.99490,R,ugm-3,35.87271,R,ugm-3,,,
11-01-2014,23:00,6.78999,R,ugm-3,39.70015,R,ugm-3,50.11133,R,ugm-3,31.93120,R,ugm-3,,,
11-01-2014,24:00,8.26835,R,ugm-3,43.07141,R,ugm-3,55.74938,R,ugm-3,31.18281,R,ugm-3,,,
12-01-2014,01:00,8.71447,R,ugm-3,42.39375,R,ugm-3,55.75575,R,ugm-3,25.87758,R,ugm-3,,,
12-01-2014,02:00,9.00634,R,ugm-3,47.26935,R,ugm-3,61.07888,R,ugm-3,18.42696,R,ugm-3,,,
12-01-2014,03:00,8.31294,R,ugm-3,48.23468,R,ugm-3,60.98102,R,ugm-3,9.52947,R,ugm-3,,,
12-01-2014,04:00,2.98042,R,ugm-3,42.50101,R,ugm-3,47.07093,R,ugm-3,9.72904,R,ugm-3,,,
12-01-2014,05:00,2.76215,R,ugm-3,39.38937,R,ugm-3,43.62460,R,ugm-3,20.90496,R,ugm-3,,,
12-01-2014,06:00,2.87160,R,ugm-3,34.89213,R,ugm-3,39.29518,R,ugm-3,18.26066,R,ugm-3,,,
12-01-2014,07:00,2.35210,R,ugm-3,29.30093,R,ugm-3,32.90743,R,ugm-3,25.49507,R,ugm-3,,,
12-01-2014,08:00,6.34470,R,ugm-3,43.43622,R,ugm-3,53.16463,R,ugm-3,33.62755,R,ugm-3,,,